Zurück zum Katalog

FENGYUN 1C DEB

AktivSSO
NORAD 32459·DEBRIS·🇨🇳 China

Gestartet May 10, 1999 von Taiyuan Satellite Launch Center

Loading…

Nächste Überflüge (nächste 24 Stunden)

TLE

AktuellSource: Space-Track

Epoche: Sep 14, 2026, 06:10 UTC

1 32459U 99025DBX 26257.25748530  .00001572  00000-0  36146-3 0  9992
2 32459  98.2935 269.6930 0211540  71.5881 290.8183 14.43965121985255

Verfolge FENGYUN 1C DEB in Echtzeit mit AllMySat

Download on the App Store